This is the latest recevied weather packets stored in our database for station/object DM4XI-13. If no packets are shown the sender has not sent any weather packets the latest 1 day(s).
| Time | Temp. | Humidity | Pressure | Rain* | Wind** | Luminosity | Snow |
|---|---|---|---|---|---|---|---|
| 1778072985 | 20.56° C | 50% | 1003.4 hPa | 0 mm | 0.89 m/s, 178° | 255 W/m² | - |
| 1778072619 | 20.56° C | 47% | 1003.5 hPa | 0 mm | 0.45 m/s, 345° | 228 W/m² | - |
| 1778072375 | 20.56° C | 47% | 1003.5 hPa | 0 mm | 0.89 m/s, 297° | 224 W/m² | - |
| 1778071887 | 21.11° C | 46% | 1003.5 hPa | 0 mm | 0.45 m/s, 272° | 294 W/m² | - |
| 1778071826 | 20.56° C | 47% | 1003.4 hPa | 0 mm | 0.45 m/s, 246° | 323 W/m² | - |
| 1778071643 | 20.56° C | 47% | 1003.4 hPa | 0 mm | 0.45 m/s, 249° | 488 W/m² | - |
| 1778071582 | 20.56° C | 49% | 1003.5 hPa | 0 mm | 0.45 m/s, 308° | 513 W/m² | - |
| 1778071521 | 20.56° C | 46% | 1003.4 hPa | 0 mm | 0.45 m/s, 252° | 451 W/m² | - |
| 1778071460 | 21.11° C | 47% | 1003.8 hPa | 0 mm | 0.89 m/s, 267° | 393 W/m² | - |
| 1778071277 | 21.11° C | 48% | 1003.6 hPa | 0 mm | 0.89 m/s, 4° | 284 W/m² | - |
| 1778071033 | 22.22° C | 43% | 1003.6 hPa | 0 mm | 1.79 m/s, 314° | 464 W/m² | - |
| 1778070423 | 20.56° C | 48% | 1003.9 hPa | 0 mm | 0 m/s | 357 W/m² | - |
| 1778070301 | 20.56° C | 47% | 1003.9 hPa | 0 mm | 0.45 m/s, 154° | 359 W/m² | - |
| 1778070240 | 20.56° C | 47% | 1003.9 hPa | 0 mm | 0 m/s | 363 W/m² | - |
| 1778069874 | 20.56° C | 48% | 1003.8 hPa | 0 mm | 0.45 m/s, 184° | 384 W/m² | - |
| 1778069568 | 20.56° C | 50% | 1004 hPa | 0 mm | 0.89 m/s, 175° | 426 W/m² | - |
| 1778069385 | 20.56° C | 48% | 1003.8 hPa | 0 mm | 0.89 m/s, 184° | 406 W/m² | - |
| 1778069141 | 21.67° C | 47% | 1004 hPa | 0 mm | 0.89 m/s, 177° | 398 W/m² | - |
| 1778069080 | 21.67° C | 45% | 1004.2 hPa | 0 mm | 1.34 m/s, 190° | 433 W/m² | - |
| 1778068287 | 20° C | 54% | 1004.4 hPa | 0 mm | 0.45 m/s, 226° | 632 W/m² | - |
| 1778068226 | 20° C | 53% | 1004.3 hPa | 0 mm | 0.89 m/s, 186° | 592 W/m² | - |
| 1778068165 | 19.44° C | 51% | 1004.3 hPa | 0 mm | 0 m/s | 504 W/m² | - |
| 1778068043 | 19.44° C | 53% | 1004.1 hPa | 0 mm | 1.34 m/s, 264° | 808 W/m² | - |
| 1778067860 | 19.44° C | 54% | 1004.2 hPa | 0 mm | 0.89 m/s, 177° | 538 W/m² | - |
| 1778067799 | 19.44° C | 52% | 1004.2 hPa | 0 mm | 0.89 m/s, 183° | 399 W/m² | - |
* Rain latest hour (hover to see other rain measurements)
** Current wind speed in m/s (hover to see current wind gust speed)